Simultaneous Nadir Overpasses (SNOs) Predictions

Prediction of SNOs between NOAA-19 and TERRA Satellite Orbit:

Table of predicted SNOs for the next 14.0 days since TLE Epoch: 6/21/2014
Index Date (NOAA-19) Time (NOAA-19) Lat,Lon (NOAA-19) SZA (NOAA-19 ) Date (TERRA) Time (TERRA) Lat,Lon (TERRA) SZA (TERRA ) Distance(km) Time Diff (sec)
1 06/21/2014 04:59:18 -70.63, -73.35 132.91 06/21/2014 05:00:20 -70.65, -73.40 132.89 2.61 62
2 06/21/2014 05:50:22 70.50, 94.08 46.97 06/21/2014 05:49:48 70.49, 94.01 46.95 3.03 34
3 06/23/2014 09:43:19 -71.15,-145.19 132.38 06/23/2014 09:44:29 -71.03,-143.87 132.49 49.16 70
4 06/23/2014 10:34:13 70.54, 23.08 47.02 06/23/2014 10:34:03 70.55, 23.03 47.02 1.94 10
5 06/23/2014 11:24:53 -69.62,-168.21 133.89 06/23/2014 11:23:46 -69.72,-170.51 133.81 89.85 67
6 06/25/2014 15:18:04 70.59, -47.93 47.11 06/25/2014 15:18:18 70.59, -47.96 47.12 1.65 14
7 06/25/2014 16:09:00 -70.46, 119.53 133.01 06/25/2014 16:07:48 -70.49, 119.51 133.00 2.76 72
8 06/27/2014 20:01:55 70.64,-118.95 47.24 06/27/2014 20:02:33 70.63,-118.97 47.23 1.06 38
9 06/27/2014 20:52:52 -70.53, 48.48 132.86 06/27/2014 20:52:03 -70.53, 48.51 132.87 1.32 49
10 06/30/2014 00:45:46 70.69, 170.02 47.41 06/30/2014 00:46:47 70.72, 170.09 47.43 3.38 61
11 06/30/2014 01:36:43 -70.56, -22.50 132.73 06/30/2014 01:36:18 -70.56, -22.51 132.73 0.26 25
12 07/02/2014 05:29:46 71.23, 98.17 48.09 07/02/2014 05:30:55 71.12, 99.65 47.98 54.47 69
13 07/02/2014 06:20:34 -70.59, -93.49 132.55 07/02/2014 06:20:33 -70.58, -93.54 132.56 2.10 1
14 07/02/2014 07:11:20 69.68, 75.19 46.56 07/02/2014 07:10:13 69.75, 72.91 46.61 88.18 67
15 07/04/2014 11:04:25 -70.63,-164.49 132.33 07/04/2014 11:04:47 -70.65,-164.50 132.32 2.14 22
16 07/04/2014 11:55:26 70.54, 2.90 47.59 07/04/2014 11:54:14 70.53, 2.96 47.57 2.95 72




NCC Satellite Simultaneous Nadir Overpasses (SNOs) Prediction Service
